Jackson Hawkins Field, MS

4:36 PM CDT on September 19, 2019 (GMT -0500)
Hawkins

Weather History for KHKS - August, 2019

Change the Weather History Date:

Monday, August 19, 2019

  Actual Average (KJAN) Record (KJAN)
Temperature  
Mean Temperature 82 °F -  
Max Temperature 91 °F 92 °F 104 °F (1999)
Min Temperature 73 °F 71 °F 61 °F (1943)
Cooling Degree Days 16    
Growing Degree Days 32 (Base 50)    
Moisture  
Dew Point 74 °F    
Average Humidity 83    
Maximum Humidity 94    
Minimum Humidity 63    
Precipitation  
Precipitation 0.58 in - - ()
Sea Level Pressure  
Sea Level Pressure 30.02 in    
Wind  
Wind Speed 5 mph ()    
Max Wind Speed 23 mph    
Max Gust Speed 31 mph    
Visibility 8.3 miles    
Events Fog , Rain , Thunderstorm    
Averages and records for this station are not official NWS values.
T = Trace of Precipitation, MM = Missing Value Source: Averaged Metar Reports

Daily Weather History Graph

Daily Weather History Graph

Search for Another Location

Airport or City:

Astronomy

Aug. 19, 2019 Rise Set
Actual Time 6:27 AM CDT 7:41 PM CDT
Civil Twilight 6:01 AM CDT 8:06 PM CDT
Nautical Twilight 5:31 AM CDT 8:37 PM CDT
Astronomical Twilight 4:59 AM CDT 9:08 PM CDT
Moon 10:15 PM CDT 9:57 AM CDT
Length of Visible Light 14h 04m
Length of Day
13h 13m
Waning Gibbous, 85% of the Moon is Illuminated
Aug 19
Waning Gibbous
Aug 23
Last Quarter
Aug 30
New
Sep 5
First Quarter
Sep 13
Full

Hourly Weather History & Observations

Time (CDT) Temp. Heat Index Dew Point Humidity Pressure Visibility Wind Dir Wind Speed Gust Speed Precip Events Conditions
12:53 AM 75.9 °F - 73.0 °F 91% 29.97 in 10.0 mi South 4.6 mph - N/A   Clear
1:53 AM 77.0 °F - 73.9 °F 90% 29.98 in 10.0 mi Calm Calm - N/A   Clear
2:53 AM 77.0 °F - 73.0 °F 88% 29.97 in 10.0 mi Calm Calm - N/A   Clear
3:53 AM 75.9 °F - 73.0 °F 91% 29.97 in 10.0 mi Calm Calm - N/A   Clear
4:53 AM 75.0 °F - 73.0 °F 94% 29.98 in 10.0 mi Calm Calm - N/A   Clear
5:53 AM 75.0 °F - 72.0 °F 90% 30.00 in 10.0 mi SSE 3.5 mph - N/A   Clear
6:53 AM 75.9 °F - 73.0 °F 91% 30.01 in 10.0 mi Calm Calm - N/A   Clear
7:53 AM 79.0 °F - 73.9 °F 84% 30.03 in 10.0 mi SW 4.6 mph - N/A   Clear
8:53 AM 82.9 °F 90.8 °F 75.9 °F 79% 30.04 in 10.0 mi West 5.8 mph - N/A   Clear
9:25 AM 84.0 °F 92.6 °F 75.9 °F 76% 30.06 in 10.0 mi NW 6.9 mph - N/A   Mostly Cloudy
9:51 AM 84.2 °F 94.1 °F 77.0 °F 79% 30.07 in 10.0 mi NW 6.9 mph - N/A   Scattered Clouds
9:53 AM 84.9 °F 95.3 °F 77.0 °F 77% 30.04 in 10.0 mi NW 6.9 mph - N/A   Scattered Clouds
10:53 AM 86.0 °F 96.0 °F 75.9 °F 72% 30.04 in 10.0 mi NNW 5.8 mph - N/A   Mostly Cloudy
11:53 AM 90.0 °F 102.5 °F 77.0 °F 65% 30.03 in 10.0 mi Variable 4.6 mph - 0.01 in   Partly Cloudy
12:53 PM 88.0 °F 97.5 °F 75.0 °F 65% 30.01 in 10.0 mi Calm Calm - 0.00 in Rain Light Rain
1:53 PM 89.1 °F 99.1 °F 75.0 °F 63% 29.99 in 10.0 mi NNE 8.1 mph - 0.00 in   Clear
2:53 PM 88.0 °F 98.5 °F 75.9 °F 67% 29.99 in 10.0 mi NNW 3.5 mph - N/A   Clear
3:19 PM 84.9 °F 92.1 °F 73.9 °F 69% 30.00 in 10.0 mi SE 12.7 mph - N/A Thunderstorm Mostly Cloudy
3:36 PM 80.1 °F 84.5 °F 73.9 °F 81% 30.03 in 3.0 mi SE 13.8 mph - 0.01 in Rain Rain
3:38 PM 79.0 °F - 73.9 °F 84% 30.03 in 2.5 mi East 9.2 mph 18.4 mph 0.01 in Rain Rain
3:41 PM 77.0 °F - 73.9 °F 90% 30.04 in 0.8 mi NE 23.0 mph 31.1 mph 0.19 in Rain Rain
3:50 PM 75.2 °F - 71.6 °F 89% 30.03 in 0.2 mi South 11.5 mph 29.9 mph 0.52 in Fog , Rain Heavy Rain
3:53 PM 75.9 °F - 73.0 °F 91% 30.00 in 0.2 mi SSW 15.0 mph - 0.55 in Fog , Rain Heavy Rain
3:57 PM 77.0 °F - 73.9 °F 90% 30.03 in 1.0 mi South 11.5 mph - 0.02 in Rain Heavy Rain
4:05 PM 77.0 °F - 75.0 °F 94% 30.01 in 3.0 mi South 6.9 mph - 0.02 in Rain Light Rain
4:18 PM 78.1 °F - 75.9 °F 93% 30.00 in 10.0 mi South 4.6 mph - 0.02 in   Scattered Clouds
4:53 PM 81.0 °F 86.7 °F 75.0 °F 82% 29.98 in 10.0 mi SSE 6.9 mph - 0.02 in   Clear
5:53 PM 80.1 °F 84.5 °F 73.9 °F 81% 29.98 in 10.0 mi Variable 3.5 mph - N/A   Mostly Cloudy
6:53 PM 79.0 °F - 73.0 °F 82% 30.01 in 10.0 mi SSE 11.5 mph - N/A   Overcast
7:53 PM 77.0 °F - 72.0 °F 84% 30.01 in 10.0 mi SSE 5.8 mph - N/A   Clear
8:53 PM 75.9 °F - 72.0 °F 87% 30.02 in 10.0 mi SSE 4.6 mph - N/A   Clear
9:53 PM 75.9 °F - 72.0 °F 87% 30.06 in 10.0 mi ESE 6.9 mph - N/A   Partly Cloudy
10:12 PM 75.0 °F - 72.0 °F 90% 30.08 in 10.0 mi ESE 11.5 mph - N/A   Scattered Clouds
10:53 PM 73.9 °F - 71.1 °F 91% 30.03 in 10.0 mi South 4.6 mph - N/A   Clear
11:53 PM 73.9 °F - 71.1 °F 91% 30.01 in 10.0 mi NW 4.6 mph - N/A   Clear